Simultaneous Nadir Overpasses (SNOs) Predictions

Prediction of SNOs between GOES-16 and METOP-C Satellite Orbit:

Table of predicted SNOs for the next 14.0 days since TLE Epoch: 10/5/2024
Index Date Time (GOES-16) GOES-16 Lat,Lon METOP-C Lat,Lon Distance(km) Time Diff (sec)
1 10/05/2024 14:46:12 -0.07, -75.21 0.78, -79.00 432.05 80
2 10/06/2024 14:28:13 -0.07, -75.21 -0.36, -74.01 137.80 80
3 10/08/2024 02:44:32 0.07, -75.20 -0.69, -78.59 386.17 80
4 10/09/2024 02:26:31 0.06, -75.21 0.41, -73.59 183.90 80
5 10/10/2024 14:42:42 -0.06, -75.22 0.57, -78.15 332.83 80
6 10/11/2024 14:24:41 -0.06, -75.23 -0.55, -73.15 237.59 80
7 10/13/2024 02:40:59 0.06, -75.23 -0.51, -77.73 285.28 80
8 10/14/2024 02:22:59 0.05, -75.24 0.62, -72.73 285.64 80
9 10/15/2024 14:41:47 -0.05, -75.26 0.41, -77.27 229.48 80
10 10/16/2024 14:18:27 -0.05, -75.28 -0.74, -72.28 341.92 80
11 10/18/2024 02:40:04 0.05, -75.29 -0.33, -76.85 179.52 80
12 10/19/2024 02:19:24 0.05, -75.30 0.84, -71.86 392.24 80
